| time (UTC) | temp C | wind direction | speed KPH | gust KPH | rain 1hr cm | rain 24hr cm | rain mn cm | humidity % | barometer mb |
| 20260905213404 | 29 | 163 | 0.0 | 0.0 | 0.00 | 0.00 | 0.15 | 70 | 1007.6 |
| 20260905212405 | 30 | 163 | 0.0 | 1.6 | 0.00 | 0.00 | 0.13 | 68 | 1008.2 |
| 20260905211404 | 31 | 163 | 1.6 | 8.0 | 0.00 | 0.00 | 0.08 | 67 | 1008.1 |
| 20260905210405 | 32 | 150 | 0.0 | 6.4 | 0.00 | 0.00 | 0.08 | 62 | 1008.2 |
| 20260905205407 | 32 | 152 | 0.0 | 8.0 | 0.00 | 0.00 | 0.08 | 63 | 1007.7 |
| 20260905204405 | 32 | 159 | 0.0 | 4.8 | 0.00 | 0.00 | 0.08 | 66 | 1007.6 |
| 20260905203405 | 32 | 159 | 0.0 | 1.6 | 0.00 | 0.00 | 0.08 | 65 | 1007.6 |
| 20260905202405 | 32 | 159 | 0.0 | 3.2 | 0.00 | 0.00 | 0.08 | 61 | 1007.8 |
| 20260905201405 | 33 | 159 | 0.0 | 1.6 | 0.00 | 0.00 | 0.08 | 58 | 1008.1 |
| 20260905200408 | 35 | 158 | 1.6 | 3.2 | 0.00 | 0.00 | 0.03 | 54 | 1008.2 |
| 20260905195405 | 35 | 158 | 0.0 | 0.0 | 0.00 | 0.00 | 0.00 | 48 | 1008.1 |
| 20260905194404 | 35 | 158 | 0.0 | 3.2 | 0.00 | 0.00 | 0.00 | 46 | 1008.2 |
| 20260905193404 | 35 | 158 | 0.0 | 8.0 | 0.00 | 0.00 | 0.00 | 46 | 1008.2 |
| 20260905192404 | 35 | 108 | 1.6 | 3.2 | 0.00 | 0.00 | 0.00 | 45 | 1008.3 |
| 20260905191405 | 36 | 107 | 0.0 | 3.2 | 0.00 | 0.00 | 0.00 | 44 | 1008.6 |
| 20260905190404 | 36 | 111 | 0.0 | 3.2 | 0.00 | 0.00 | 0.00 | 44 | 1008.6 |
| 20260905185404 | 35 | 109 | 0.0 | 6.4 | 0.00 | 0.00 | 0.00 | 47 | 1008.7 |
| 20260905184404 | 35 | 34 | 0.0 | 3.2 | 0.00 | 0.00 | 0.00 | 49 | 1008.8 |
| 20260905183404 | 34 | 34 | 0.0 | 3.2 | 0.00 | 0.00 | 0.00 | 53 | 1008.8 |
| 20260905182404 | 33 | 34 | 0.0 | 3.2 | 0.00 | 0.00 | 0.00 | 53 | 1009.2 |
| 20260905181404 | 33 | 34 | 3.2 | 4.8 | 0.00 | 0.00 | 0.00 | 55 | 1009.7 |
| 20260905180405 | 32 | 33 | 0.0 | 4.8 | 0.00 | 0.00 | 0.00 | 56 | 1009.7 |
| 20260905175405 | 32 | 32 | 1.6 | 3.2 | 0.00 | 0.00 | 0.00 | 57 | 1009.8 |
| 20260905174404 | 33 | 32 | 0.0 | 4.8 | 0.00 | 0.00 | 0.00 | 56 | 1010.0 |
| 20260905173408 | 33 | 56 | 0.0 | 4.8 | 0.00 | 0.00 | 0.00 | 57 | 1010.0 |
| 20260905172407 | 33 | 56 | 1.6 | 4.8 | 0.00 | 0.00 | 0.00 | 59 | 1010.1 |
| 20260905171404 | 32 | 56 | 0.0 | 1.6 | 0.00 | 0.00 | 0.00 | 61 | 1010.2 |
| 20260905170404 | 32 | 56 | 0.0 | 0.0 | 0.00 | 0.00 | 0.00 | 62 | 1010.2 |
| 20260905165404 | 32 | 56 | 0.0 | 8.0 | 0.00 | 0.00 | 0.00 | 64 | 1010.3 |
| 20260905164404 | 32 | 153 | 0.0 | 4.8 | 0.00 | 0.00 | 0.00 | 62 | 1010.3 |
| 20260905163405 | 32 | 153 | 0.0 | 3.2 | 0.00 | 0.00 | 0.00 | 64 | 1010.3 |
| 20260905162407 | 31 | 153 | 0.0 | 4.8 | 0.00 | 0.00 | 0.00 | 67 | 1010.3 |
| 20260905161405 | 31 | 153 | 0.0 | 4.8 | 0.00 | 0.00 | 0.00 | 68 | 1010.3 |
| 20260905160404 | 30 | 153 | 0.0 | 3.2 | 0.00 | 0.00 | 0.00 | 71 | 1010.3 |
| 20260905155407 | 30 | 153 | 0.0 | 4.8 | 0.00 | 0.00 | 0.00 | 74 | 1010.3 |
| 20260905154404 | 29 | 153 | 1.6 | 4.8 | 0.00 | 0.00 | 0.00 | 79 | 1010.3 |
| 20260905153407 | 28 | 153 | 0.0 | 1.6 | 0.00 | 0.00 | 0.00 | 82 | 1010.3 |
| 20260905152404 | 28 | 152 | 0.0 | 1.6 | 0.00 | 0.00 | 0.00 | 85 | 1010.4 |
| 20260905151404 | 27 | 153 | 0.0 | 0.0 | 0.00 | 0.00 | 0.00 | 86 | 1010.4 |
| 20260905150404 | 27 | 153 | 0.0 | 1.6 | 0.00 | 0.00 | 0.00 | 88 | 1010.4 |
| 20260905145404 | 27 | 153 | 0.0 | 0.0 | 0.00 | 0.00 | 0.00 | 89 | 1010.2 |
| 20260905144404 | 27 | 153 | 0.0 | 0.0 | 0.00 | 0.00 | 0.00 | 90 | 1010.2 |
| 20260905143504 | 27 | 153 | 0.0 | 1.6 | 0.00 | 0.00 | 0.00 | 90 | 1010.2 |
| 20260905142504 | 27 | 153 | 0.0 | 0.0 | 0.00 | 0.00 | 0.00 | 90 | 1010.3 |
| 20260905141504 | 27 | 153 | 0.0 | 1.6 | 0.00 | 0.00 | 0.00 | 90 | 1010.2 |
| 20260905140504 | 26 | 152 | 0.0 | 0.0 | 0.00 | 0.00 | 0.00 | 90 | 1010.2 |
| 20260905135504 | 26 | 153 | 0.0 | 0.0 | 0.00 | 0.00 | 0.00 | 90 | 1010.1 |
| 20260905134507 | 26 | 153 | 0.0 | 0.0 | 0.00 | 0.00 | 0.00 | 90 | 1010.2 |
| 20260905133507 | 26 | 153 | 0.0 | 0.0 | 0.00 | 0.00 | 0.00 | 89 | 1010.2 |
| 20260905132504 | 26 | 152 | 0.0 | 0.0 | 0.00 | 0.00 | 0.00 | 89 | 1010.2 |
| 20260905131504 | 25 | 152 | 0.0 | 0.0 | 0.00 | 0.00 | 0.00 | 88 | 1009.8 |
| 20260905130504 | 25 | 152 | 0.0 | 0.0 | 0.00 | 0.00 | 0.00 | 87 | 1009.8 |
| 20260905125504 | 25 | 153 | 0.0 | 0.0 | 0.00 | 0.00 | 0.00 | 86 | 1009.7 |
| 20260905124504 | 25 | 153 | 0.0 | 0.0 | 0.00 | 0.00 | 0.00 | 86 | 1009.6 |
| 20260905123504 | 25 | 152 | 0.0 | 0.0 | 0.00 | 0.00 | 0.00 | 86 | 1009.6 |
| 20260905122504 | 25 | 152 | 0.0 | 0.0 | 0.00 | 0.00 | 0.00 | 86 | 1009.5 |
| 20260905121504 | 25 | 152 | 0.0 | 0.0 | 0.00 | 0.00 | 0.00 | 86 | 1009.2 |
| 20260905120504 | 25 | 152 | 0.0 | 0.0 | 0.00 | 0.00 | 0.00 | 86 | 1009.2 |
| 20260905115504 | 25 | 152 | 0.0 | 0.0 | 0.00 | 0.00 | 0.00 | 86 | 1009.1 |
| 20260905114504 | 25 | 152 | 0.0 | 0.0 | 0.00 | 0.00 | 0.00 | 86 | 1009.0 |
| 20260905113507 | 25 | 153 | 0.0 | 0.0 | 0.00 | 0.00 | 0.00 | 86 | 1009.0 |
| 20260905112504 | 25 | 153 | 0.0 | 0.0 | 0.00 | 0.00 | 0.00 | 85 | 1008.7 |
| 20260905111504 | 25 | 153 | 0.0 | 0.0 | 0.00 | 0.00 | 0.00 | 85 | 1008.6 |
| 20260905110504 | 25 | 152 | 0.0 | 0.0 | 0.00 | 0.00 | 0.00 | 85 | 1008.6 |
| 20260905105504 | 25 | 153 | 0.0 | 0.0 | 0.00 | 0.00 | 0.00 | 85 | 1008.6 |
| 20260905104503 | 25 | 152 | 0.0 | 0.0 | 0.00 | 0.00 | 0.00 | 84 | 1008.6 |
| 20260905103504 | 25 | 153 | 0.0 | 0.0 | 0.00 | 0.00 | 0.00 | 84 | 1008.6 |
| 20260905102503 | 25 | 152 | 0.0 | 0.0 | 0.00 | 0.00 | 0.00 | 84 | 1008.6 |
| 20260905101504 | 25 | 153 | 0.0 | 0.0 | 0.00 | 0.00 | 0.00 | 84 | 1008.6 |
| 20260905100504 | 25 | 153 | 0.0 | 0.0 | 0.00 | 0.00 | 0.00 | 84 | 1008.6 |
| 20260905095504 | 25 | 152 | 0.0 | 0.0 | 0.00 | 0.00 | 0.00 | 84 | 1008.6 |
| 20260905094503 | 25 | 153 | 0.0 | 0.0 | 0.00 | 0.00 | 0.00 | 83 | 1008.6 |
| 20260905093507 | 25 | 153 | 0.0 | 0.0 | 0.00 | 0.00 | 0.00 | 84 | 1008.6 |
| 20260905092503 | 26 | 152 | 0.0 | 0.0 | 0.00 | 0.00 | 0.00 | 84 | 1008.6 |
| 20260905091504 | 26 | 153 | 0.0 | 0.0 | 0.00 | 0.00 | 0.00 | 83 | 1008.6 |
| 20260905090504 | 26 | 153 | 0.0 | 0.0 | 0.00 | 0.00 | 0.00 | 83 | 1008.6 |
| 20260905085503 | 26 | 152 | 0.0 | 0.0 | 0.00 | 0.00 | 0.00 | 83 | 1008.4 |
| 20260905084504 | 26 | 153 | 0.0 | 0.0 | 0.00 | 0.00 | 0.00 | 83 | 1008.5 |
| 20260905083503 | 26 | 153 | 0.0 | 0.0 | 0.00 | 0.00 | 0.00 | 83 | 1008.5 |
| 20260905082504 | 26 | 153 | 0.0 | 0.0 | 0.00 | 0.00 | 0.00 | 83 | 1008.6 |
| 20260905081506 | 26 | 152 | 0.0 | 0.0 | 0.00 | 0.00 | 0.00 | 82 | 1008.6 |
| 20260905080503 | 26 | 153 | 0.0 | 0.0 | 0.00 | 0.00 | 0.00 | 83 | 1008.6 |
| 20260905075504 | 26 | 152 | 0.0 | 0.0 | 0.00 | 0.00 | 0.00 | 82 | 1008.6 |
| 20260905074504 | 26 | 152 | 0.0 | 0.0 | 0.00 | 0.00 | 0.00 | 82 | 1008.8 |
| 20260905073503 | 26 | 153 | 0.0 | 0.0 | 0.00 | 0.00 | 0.00 | 82 | 1008.8 |
| 20260905072503 | 26 | 152 | 0.0 | 0.0 | 0.00 | 0.00 | 0.00 | 82 | 1009.0 |
| 20260905071503 | 26 | 152 | 0.0 | 0.0 | 0.00 | 0.00 | 0.00 | 82 | 1009.1 |
| 20260905070503 | 27 | 153 | 0.0 | 0.0 | 0.00 | 0.00 | 0.00 | 82 | 1009.1 |
| 20260905065504 | 27 | 153 | 0.0 | 0.0 | 0.00 | 0.00 | 0.00 | 81 | 1009.0 |
| 20260905064503 | 27 | 153 | 0.0 | 0.0 | 0.00 | 0.00 | 0.00 | 81 | 1009.1 |
| 20260905063503 | 27 | 152 | 0.0 | 0.0 | 0.00 | 0.00 | 0.00 | 81 | 1009.1 |
| 20260905062504 | 27 | 153 | 0.0 | 0.0 | 0.00 | 0.00 | 0.00 | 81 | 1009.2 |
| 20260905061506 | 27 | 152 | 0.0 | 0.0 | 0.00 | 0.00 | 0.00 | 81 | 1009.3 |
| 20260905060504 | 27 | 153 | 0.0 | 0.0 | 0.00 | 0.00 | 0.00 | 81 | 1009.3 |
| 20260905055503 | 27 | 152 | 0.0 | 0.0 | 0.00 | 0.00 | 0.00 | 80 | 1009.2 |
| 20260905054504 | 27 | 153 | 0.0 | 0.0 | 0.00 | 0.00 | 0.00 | 80 | 1009.4 |
| 20260905053506 | 27 | 152 | 0.0 | 0.0 | 0.00 | 0.00 | 0.00 | 79 | 1009.4 |
| 20260905052507 | 27 | 153 | 0.0 | 0.0 | 0.00 | 0.00 | 0.00 | 79 | 1009.2 |
| 20260905051503 | 27 | 152 | 0.0 | 0.0 | 0.00 | 0.00 | 0.00 | 79 | 1009.2 |
| 20260905050504 | 27 | 152 | 0.0 | 0.0 | 0.00 | 0.00 | 0.41 | 79 | 1009.2 |
| 20260905045503 | 28 | 152 | 0.0 | 0.0 | 0.00 | 0.00 | 0.41 | 79 | 1009.3 |
| 20260905044503 | 28 | 153 | 0.0 | 0.0 | 0.00 | 0.00 | 0.41 | 79 | 1009.5 |
| 20260905043504 | 28 | 153 | 0.0 | 0.0 | 0.00 | 0.00 | 0.41 | 78 | 1009.5 |
| 20260905042503 | 28 | 152 | 0.0 | 1.6 | 0.00 | 0.00 | 0.41 | 78 | 1009.5 |
| 20260905041504 | 28 | 152 | 0.0 | 0.0 | 0.00 | 0.00 | 0.41 | 77 | 1009.6 |
| 20260905040505 | 28 | 153 | 0.0 | 1.6 | 0.00 | 0.00 | 0.41 | 77 | 1009.6 |
| 20260905035503 | 28 | 153 | 0.0 | 1.6 | 0.00 | 0.00 | 0.41 | 76 | 1009.7 |
| 20260905034504 | 28 | 153 | 0.0 | 1.6 | 0.00 | 0.00 | 0.41 | 76 | 1009.7 |
| 20260905033503 | 28 | 153 | 0.0 | 4.8 | 0.00 | 0.00 | 0.41 | 75 | 1009.7 |
| 20260905032504 | 28 | 153 | 0.0 | 4.8 | 0.00 | 0.00 | 0.41 | 75 | 1009.7 |
| 20260905031504 | 28 | 153 | 0.0 | 1.6 | 0.00 | 0.00 | 0.41 | 74 | 1009.7 |
| 20260905030504 | 28 | 153 | 0.0 | 4.8 | 0.00 | 0.00 | 0.41 | 74 | 1009.7 |
| 20260905025504 | 28 | 152 | 1.6 | 4.8 | 0.00 | 0.00 | 0.41 | 74 | 1009.6 |
| 20260905024503 | 28 | 144 | 0.0 | 6.4 | 0.00 | 0.00 | 0.41 | 73 | 1009.5 |
| 20260905023503 | 28 | 144 | 0.0 | 1.6 | 0.00 | 0.00 | 0.41 | 71 | 1009.5 |
| 20260905022503 | 28 | 144 | 0.0 | 0.0 | 0.00 | 0.00 | 0.41 | 68 | 1009.2 |
| 20260905021504 | 29 | 144 | 0.0 | 0.0 | 0.00 | 0.00 | 0.41 | 68 | 1009.1 |
| 20260905020503 | 29 | 144 | 0.0 | 0.0 | 0.00 | 0.00 | 0.41 | 66 | 1009.1 |
| 20260905015503 | 29 | 144 | 0.0 | 0.0 | 0.00 | 0.00 | 0.41 | 65 | 1009.0 |
| 20260905014506 | 30 | 144 | 0.0 | 0.0 | 0.00 | 0.00 | 0.41 | 65 | 1008.7 |
| 20260905013507 | 30 | 144 | 0.0 | 0.0 | 0.00 | 0.00 | 0.41 | 64 | 1008.7 |
| 20260905012507 | 30 | 144 | 0.0 | 0.0 | 0.00 | 0.00 | 0.41 | 63 | 1008.7 |
| 20260905011503 | 31 | 144 | 0.0 | 0.0 | 0.00 | 0.00 | 0.41 | 62 | 1008.6 |
| 20260905010503 | 31 | 144 | 0.0 | 6.4 | 0.00 | 0.00 | 0.41 | 61 | 1008.6 |
| 20260905005503 | 31 | 140 | 0.0 | 3.2 | 0.00 | 0.00 | 0.41 | 60 | 1008.5 |
| 20260905004503 | 31 | 140 | 0.0 | 4.8 | 0.00 | 0.00 | 0.41 | 59 | 1008.3 |
| 20260905003503 | 32 | 140 | 0.0 | 0.0 | 0.00 | 0.00 | 0.41 | 59 | 1008.3 |
| 20260905002503 | 32 | 140 | 0.0 | 4.8 | 0.00 | 0.00 | 0.41 | 58 | 1008.1 |
| 20260905001503 | 32 | 140 | 0.0 | 8.0 | 0.00 | 0.00 | 0.41 | 57 | 1008.0 |
| 20260905000503 | 33 | 140 | 0.0 | 4.8 | 0.00 | 0.00 | 0.41 | 56 | 1008.0 |
| 20260904235503 | 33 | 135 | 0.0 | 4.8 | 0.00 | 0.00 | 0.41 | 54 | 1008.0 |
| 20260904234503 | 33 | 135 | 0.0 | 6.4 | 0.00 | 0.00 | 0.41 | 52 | 1008.0 |
| 20260904233503 | 33 | 134 | 0.0 | 1.6 | 0.00 | 0.00 | 0.41 | 52 | 1008.0 |
| 20260904232503 | 34 | 134 | 0.0 | 0.0 | 0.00 | 0.00 | 0.41 | 51 | 1007.8 |
| 20260904231503 | 35 | 134 | 0.0 | 3.2 | 0.00 | 0.00 | 0.41 | 50 | 1008.0 |
| 20260904230506 | 35 | 196 | 0.0 | 4.8 | 0.00 | 0.00 | 0.41 | 50 | 1008.0 |
| 20260904225503 | 35 | 196 | 0.0 | 6.4 | 0.00 | 0.00 | 0.41 | 48 | 1008.1 |
| 20260904224504 | 35 | 196 | 0.0 | 1.6 | 0.00 | 0.00 | 0.41 | 48 | 1008.1 |
| 20260904223503 | 35 | 196 | 1.6 | 4.8 | 0.00 | 0.00 | 0.41 | 50 | 1008.1 |
| 20260904222503 | 35 | 196 | 0.0 | 8.0 | 0.00 | 0.00 | 0.41 | 51 | 1008.2 |
| 20260904221503 | 35 | 196 | 0.0 | 8.0 | 0.00 | 0.00 | 0.41 | 52 | 1008.2 |
| 20260904220503 | 35 | 228 | 0.0 | 3.2 | 0.00 | 0.00 | 0.41 | 52 | 1008.2 |
| 20260904215503 | 35 | 230 | 0.0 | 4.8 | 0.00 | 0.00 | 0.41 | 52 | 1008.3 |